Back to catalog

STARLINK-4672

AliveCommunicationsVLEO
NORAD 53592·PAYLOAD·🇺🇸 United States

Launched Aug 28, 2022 from Cape Canaveral Space Force Station

Loading…

Next Passes (next 24 hours)

TLE

FreshSource: CelesTrak SupGP

Epoch: Sep 14, 2026, 21:00 UTC

1 53592C 22104E   26257.87548611 -.00000198  00000+0 -56542-5 0  2578
2 53592  53.1569  99.9876 0001216  87.1957  75.4715 15.35391667    16

Track STARLINK-4672 in real time with AllMySat

Download on the App Store